Location: Newark
(65.8500°N, 88.0667°E)
Time: 11:00:38
(UTC+00:00)

N. Korean satellite - Visible Passes

Search period start: 23 February 2020 00:00
Search period end: 04 March 2020 00:00
Orbit: 456 x 505 km, 97.2° (Epoch: 23 February)

Date Brightness Start Highest point End Pass type
(mag) Time Alt. Az. Time Alt. Az. Time Alt. Az.
23 Feb 9.6 11:51:10 10° SW 11:54:09 23° W 11:57:10 10° NW visible
23 Feb 9.5 23:04:13 10° NE 23:07:05 20° E 23:09:57 10° SE visible
24 Feb 6.7 00:37:14 10° NNE 00:41:00 89° W 00:44:44 10° SSW visible
24 Feb 10.0 22:39:10 10° NE 22:41:14 14° E 22:43:18 10° ESE visible
25 Feb 7.3 00:11:40 10° NNE 00:15:23 60° ESE 00:19:05 10° S visible
25 Feb 10.2 12:35:19 10° WSW 12:36:57 12° W 12:38:35 10° NW visible
25 Feb 8.3 23:46:11 10° NNE 23:49:44 39° E 23:53:14 10° SSE visible
26 Feb 9.9 12:08:27 10° SW 12:11:03 18° W 12:13:42 10° NW visible
26 Feb 9.1 23:20:46 10° NNE 23:23:58 26° E 23:27:10 10° SSE visible
27 Feb 9.8 22:55:31 10° NE 22:58:09 18° E 23:00:48 10° SE visible
28 Feb 6.8 00:28:23 10° NNE 00:32:09 79° ESE 00:35:53 10° SSW visible
28 Feb 10.1 22:30:38 10° NE 22:32:17 12° E 22:33:54 10° ESE visible
29 Feb 7.7 00:02:51 10° NNE 00:06:31 51° ESE 00:10:09 10° S visible
29 Feb 10.1 12:25:54 10° WSW 12:27:59 14° W 12:30:04 10° NW visible
29 Feb 8.6 23:37:22 10° NNE 23:40:49 34° E 23:44:14 10° SSE visible
01 Mar 9.4 23:12:00 10° NE 23:15:03 23° E 23:18:03 10° SE visible
02 Mar 9.9 22:46:50 10° NE 22:49:12 16° E 22:51:33 10° ESE visible
03 Mar 7.1 00:19:33 10° NNE 00:23:17 69° ESE 00:26:58 10° S visible
03 Mar 10.5 12:43:49 10° W 12:44:55 11° WNW 12:46:03 10° WNW visible
03 Mar 10.3 22:22:18 10° ENE 22:23:16 11° ENE 22:24:13 10° E visible
